Orbital Elements at Epoch 2459200.5 (2020-Dec-17.0) TDB
Reference: JPL 20 (heliocentric ecliptic J2000)
Element | Value | Uncertainty (1-sigma) | Units |
e | .1937199700595727 | 4.3351e-08 | |
a | 2.360009015041914 | 9.4508e-09 | au |
q | 1.902828139307672 | 1.0206e-07 | au |
i | 7.221903062645586 | 5.2004e-06 | deg |
node | 62.81460427529157 | 4.3812e-05 | deg |
peri | 26.56493734114686 | 4.6726e-05 | deg |
M | 359.1802495889281 | 1.5673e-05 | deg |
tp | 2459203.515421743752 (2020-Dec-20.01542174) | 5.7661e-05 | TDB |
period | 1324.246762293284 3.63 | 7.9545e-06 2.178e-08 | d yr |
n | .2718526563558024 | 1.633e-09 | deg/d |
Q | 2.817189890776155 | 1.1282e-08 | au |
|
| | Orbit Determination Parameters
Additional Information
|